Location: Unspecified
(50.1700°N, 6.8600°E)
Time: 13:35:04
(UTC+00:00)

COSMO-SKYMED 1 - Pass Details

Date: 24 January 2019
Orbit: 621 x 624 km, 97.9° (Epoch: 23 February)

Event Time Altitude Azimuth Distance (km) Brightness Sun altitude
Rises 04:06:11 0° 149° (SSE) 2,895 6.3 -30.3°
Reaches altitude 10° 04:08:25 10° 144° (SE) 1,993 5.5 -30.0°
Enters shadow 04:11:32 40° 113° (ESE) 930 3.8 -29.5°
